Weather History for Alliance, NE

Change the Weather History Date:

Saturday, February 9, 2013

  Actual Average Record
Temperature  
Mean Temperature 25 °F 26 °F  
Max Temperature 29 °F 40 °F 67 °F (1954)
Min Temperature 20 °F 12 °F -28 °F (1936)
Degree Days  
Heating Degree Days 40 39  
Month to date heating degree days 283 358  
Since 1 July heating degree days 4352 4703  
Cooling Degree Days 0 0  
Month to date cooling degree days 0 0  
Year to date cooling degree days 0 0  
Moisture  
Dew Point 22 °F    
Average Humidity 89    
Maximum Humidity 96    
Minimum Humidity 81    
Precipitation  
Precipitation T in 0.01 in 0.44 in (1953)
Month to date precipitation T 0.11  
Year to date precipitation 0.22 0.29  
Sea Level Pressure  
Sea Level Pressure 29.65 in    
Wind  
Wind Speed 14 mph (NNE)    
Max Wind Speed 25 mph    
Max Gust Speed 31 mph    
Visibility 6 miles    
Events Fog , Snow    
T = Trace of Precipitation, MM = Missing Value Source: NWS Daily Summary

Daily Weather History Graph

Daily Weather History Graph

Search for Another Location

Airport:

Trip Planner

Search our weather history database for the weather conditions in past years. The results will help you decide how hot, cold, wet, or windy it might be!

Date:

Astronomy

Feb. 09, 2013 Rise Set
Actual Time 6:54 AM MST 5:16 PM MST
Civil Twilight 6:25 AM MST 5:45 PM MST
Nautical Twilight 5:52 AM MST 6:18 PM MST
Astronomical Twilight 5:20 AM MST 6:51 PM MST
Moon 6:07 AM MST (2/9) 5:02 PM MST (2/9)
Length of Visible Light 11h 20m
Length of Day
10h 22m
Waning Crescent, 0% of the Moon is Illuminated
Feb 9
Waning Crescent
Feb 10
New
Feb 17
First Quarter
Feb 25
Full
Mar 4
Last Quarter

Hourly Weather History & Observations

Time (MST) Temp. Windchill Dew Point Humidity Pressure Visibility Wind Dir Wind Speed Gust Speed Precip Events Conditions
12:53 AM 21.9 °F 13.4 °F 19.0 °F 89% 29.75 in 10.0 mi North 6.9 mph - N/A   Clear
1:53 AM 19.9 °F 11.1 °F 18.0 °F 92% 29.75 in 10.0 mi North 6.9 mph - N/A   Clear
2:53 AM 19.9 °F 8.6 °F 18.0 °F 92% 29.75 in 10.0 mi North 10.4 mph - N/A   Clear
3:53 AM 21.9 °F 9.2 °F 19.9 °F 92% 29.73 in 10.0 mi North 13.8 mph - N/A   Clear
4:53 AM 23.0 °F 10.6 °F 21.0 °F 92% 29.75 in 10.0 mi North 13.8 mph - N/A   Clear
5:53 AM 23.0 °F 11.7 °F 19.9 °F 88% 29.77 in 10.0 mi NNE 11.5 mph - N/A   Partly Cloudy
6:08 AM 23.0 °F 11.7 °F 19.4 °F 86% 29.71 in 10.0 mi NNE 11.5 mph - N/A   Mostly Cloudy
6:53 AM 24.1 °F 13.1 °F 21.0 °F 88% 29.79 in 10.0 mi NNE 11.5 mph - N/A   Overcast
7:11 AM 24.8 °F 12.9 °F 21.2 °F 86% 29.71 in 7.0 mi NNE 13.8 mph - N/A   Overcast
7:28 AM 24.8 °F 14.6 °F 23.0 °F 93% 29.72 in 1.8 mi North 10.4 mph - N/A   Overcast
7:37 AM 24.8 °F 14.0 °F 23.0 °F 93% 29.72 in 3.0 mi North 11.5 mph - N/A   Overcast
7:50 AM 24.8 °F 11.9 °F 23.0 °F 93% 29.72 in 2.0 mi NNE 16.1 mph - N/A   Overcast
7:53 AM 25.0 °F 13.1 °F 23.0 °F 92% 29.81 in 2.0 mi NNE 13.8 mph - N/A   Overcast
8:04 AM 24.8 °F 11.9 °F 23.0 °F 93% 29.71 in 6.0 mi NNE 16.1 mph - N/A   Overcast
8:53 AM 25.0 °F 11.7 °F 23.0 °F 92% 29.79 in 5.0 mi NNE 17.3 mph - N/A   Overcast
9:53 AM 27.0 °F 16.1 °F 25.0 °F 92% 29.78 in 7.0 mi NE 12.7 mph - N/A   Overcast
10:53 AM 28.0 °F 17.0 °F 25.0 °F 88% 29.74 in 10.0 mi NNE 13.8 mph - N/A   Overcast
11:53 AM 28.0 °F 16.5 °F 25.0 °F 88% 29.73 in 10.0 mi NE 15.0 mph - N/A   Overcast
12:15 PM 28.4 °F 16.6 °F 24.8 °F 86% 29.62 in 10.0 mi NE 16.1 mph - N/A   Overcast
12:53 PM 28.0 °F 15.7 °F 25.0 °F 88% 29.69 in 10.0 mi NE 17.3 mph - N/A   Overcast
1:17 PM 28.4 °F 16.6 °F 24.8 °F 86% 29.59 in 10.0 mi NE 16.1 mph - N/A   Overcast
1:53 PM 27.0 °F 15.6 °F 24.1 °F 89% 29.68 in 9.0 mi NE 13.8 mph - N/A   Overcast
2:53 PM 26.1 °F 13.6 °F 23.0 °F 88% 29.68 in 9.0 mi NE 16.1 mph - N/A   Overcast
3:53 PM 25.0 °F 12.6 °F 23.0 °F 92% 29.67 in 10.0 mi North 15.0 mph - N/A   Overcast
4:53 PM 25.0 °F 13.1 °F 23.0 °F 92% 29.68 in 9.0 mi NNE 13.8 mph - N/A   Overcast
5:23 PM 24.8 °F 12.9 °F 23.0 °F 93% 29.57 in 1.8 mi North 13.8 mph - 0.00 in Snow Light Snow
5:28 PM 24.8 °F 11.5 °F 23.0 °F 93% 29.57 in 1.0 mi North 17.3 mph - 0.00 in Snow Light Snow
5:36 PM 24.8 °F 12.4 °F 23.0 °F 93% 29.57 in 0.5 mi North 15.0 mph - 0.00 in Fog , Snow Snow
5:53 PM 25.0 °F 13.1 °F 21.9 °F 88% 29.67 in 1.0 mi North 13.8 mph - 0.00 in Snow Light Snow
6:00 PM 24.8 °F 12.4 °F 21.2 °F 86% 29.56 in 1.5 mi North 15.0 mph - 0.00 in Snow Light Snow
6:13 PM 24.8 °F 12.9 °F 21.2 °F 86% 29.56 in 3.0 mi North 13.8 mph - 0.00 in Snow Light Snow
6:24 PM 24.8 °F 14.6 °F 21.2 °F 86% 29.57 in 5.0 mi North 10.4 mph - 0.00 in Snow Light Snow
6:53 PM 24.1 °F 11.5 °F 21.9 °F 91% 29.66 in 10.0 mi North 15.0 mph - 0.00 in   Overcast
7:25 PM 24.8 °F 12.9 °F 21.2 °F 86% 29.56 in 10.0 mi North 13.8 mph - N/A   Overcast
7:53 PM 24.1 °F 12.5 °F 21.0 °F 88% 29.65 in 10.0 mi North 12.7 mph - N/A   Overcast
8:53 PM 24.1 °F 10.1 °F 19.9 °F 84% 29.61 in 10.0 mi North 18.4 mph - N/A   Overcast
9:19 PM 23.0 °F 10.6 °F 19.4 °F 86% 29.52 in 8.0 mi North 13.8 mph - 0.00 in Snow Light Snow
9:50 PM 23.0 °F 11.7 °F 19.4 °F 86% 29.52 in 4.0 mi North 11.5 mph 20.7 mph 0.00 in Snow Light Snow
9:53 PM 23.0 °F 10.1 °F 19.9 °F 88% 29.61 in 5.0 mi North 15.0 mph 20.7 mph 0.00 in Snow Light Snow
10:11 PM 23.0 °F 8.7 °F 19.4 °F 86% 29.51 in 9.0 mi North 18.4 mph 24.2 mph 0.00 in   Overcast
10:21 PM 23.0 °F 9.6 °F 19.4 °F 86% 29.51 in 10.0 mi North 16.1 mph - 0.00 in   Overcast
10:53 PM 23.0 °F 7.6 °F 19.0 °F 85% 29.58 in 6.0 mi North 21.9 mph 28.8 mph 0.00 in Snow Light Snow
11:04 PM 23.0 °F 8.0 °F 19.4 °F 86% 29.49 in 1.2 mi North 20.7 mph 27.6 mph 0.00 in   Overcast
11:12 PM 23.0 °F 7.2 °F 19.4 °F 86% 29.49 in 1.0 mi North 23.0 mph 28.8 mph 0.00 in Snow Light Snow
11:15 PM 23.0 °F 7.6 °F 19.4 °F 86% 29.50 in 0.8 mi North 21.9 mph - 0.00 in Snow Light Snow
11:53 PM 21.9 °F 5.5 °F 19.9 °F 92% 29.58 in 0.2 mi North 24.2 mph 31.1 mph 0.00 in Fog Light Freezing Fog